• In Hungary
  • List of Countries
  • For 7 days
  • Water Temperature
  • Satellite Maps
  • Weather Map
  • News
  • Weather Widgets
  • user-avatar
    Login

    Hourly Weather Tarnow

    Today, 21 September, Friday

    Time Temperature Precipitation Wind Pressure Humidity
    00:00 +19°C° 0 mm 2 mps 739 mmHg 76%
    01:00 +18°C° 0 mm 2 mps 739 mmHg 77%
    02:00 +18°C° 0 mm 3 mps 739 mmHg 77%
    03:00 +18°C° 0 mm 3 mps 738 mmHg 77%
    04:00 +18°C° 0 mm 3 mps 738 mmHg 78%
    05:00 +18°C° 0 mm 3 mps 738 mmHg 76%
    06:00 +18°C° 0 mm 3 mps 738 mmHg 74%
    07:00 +19°C° 0 mm 3 mps 738 mmHg 72%
    08:00 +21°C° 0 mm 4 mps 737 mmHg 65%
    09:00 +22°C° 0 mm 4 mps 737 mmHg 57%
    10:00 +25°C° 0 mm 5 mps 737 mmHg 50%
    11:00 +26°C° 0 mm 5 mps 736 mmHg 48%
    12:00 +27°C° 0 mm 6 mps 736 mmHg 46%
    13:00 +28°C° 0 mm 6 mps 736 mmHg 44%
    14:00 +27°C° 0 mm 6 mps 735 mmHg 46%
    15:00 +27°C° 0 mm 5 mps 735 mmHg 48%
    16:00 +27°C° 0 mm 5 mps 734 mmHg 50%
    17:00 +25°C° 0 mm 5 mps 734 mmHg 53%
    18:00 +23°C° 0 mm 4 mps 734 mmHg 57%
    19:00 +21°C° 0 mm 4 mps 734 mmHg 60%
    20:00 +21°C° 0.3 mm 4 mps 734 mmHg 65%
    21:00 +20°C° 0.3 mm 5 mps 735 mmHg 70%
    22:00 +19°C° 0.3 mm 5 mps 735 mmHg 76%
    23:00 +17°C° 0.9 mm 5 mps 736 mmHg 78%

    Tomorrow, 22 September, Saturday

    Time Temperature Precipitation Wind Pressure Humidity
    00:00 +15°C° 0.9 mm 5 mps 737 mmHg 81%
    01:00 +13°C° 0.9 mm 5 mps 737 mmHg 84%
    02:00 +13°C° 0.4 mm 4 mps 738 mmHg 83%
    03:00 +13°C° 0.4 mm 3 mps 739 mmHg 82%
    04:00 +13°C° 0.4 mm 2 mps 740 mmHg 81%
    05:00 +12°C° 0.1 mm 3 mps 740 mmHg 80%
    06:00 +12°C° 0.1 mm 3 mps 740 mmHg 78%
    07:00 +12°C° 0.1 mm 3 mps 741 mmHg 77%
    08:00 +13°C° 0 mm 4 mps 741 mmHg 69%
    09:00 +14°C° 0 mm 5 mps 741 mmHg 61%
    10:00 +15°C° 0 mm 5 mps 741 mmHg 53%
    11:00 +15°C° 0 mm 5 mps 740 mmHg 50%
    12:00 +16°C° 0 mm 5 mps 740 mmHg 48%
    13:00 +17°C° 0 mm 5 mps 740 mmHg 45%
    14:00 +17°C° 0 mm 5 mps 740 mmHg 45%
    15:00 +16°C° 0 mm 5 mps 740 mmHg 46%
    16:00 +16°C° 0 mm 5 mps 740 mmHg 46%
    17:00 +15°C° 0 mm 4 mps 740 mmHg 50%
    18:00 +14°C° 0 mm 3 mps 740 mmHg 54%
    19:00 +12°C° 0 mm 3 mps 741 mmHg 57%
    20:00 +12°C° 0 mm 3 mps 741 mmHg 59%
    21:00 +11°C° 0 mm 3 mps 741 mmHg 62%
    22:00 +10°C° 0 mm 3 mps 742 mmHg 64%
    23:00 +10°C° 0 mm 3 mps 742 mmHg 65%

    Day after tomorrow, 23 September, Sunday

    Time Temperature Precipitation Wind Pressure Humidity
    00:00 +10°C° 0 mm 3 mps 742 mmHg 67%
    01:00 +9°C° 0 mm 3 mps 742 mmHg 69%
    02:00 +9°C° 0 mm 3 mps 742 mmHg 71%
    03:00 +9°C° 0 mm 2 mps 742 mmHg 73%
    04:00 +8°C° 0 mm 2 mps 742 mmHg 76%
    05:00 +9°C° 0 mm 2 mps 742 mmHg 75%
    06:00 +9°C° 0 mm 2 mps 742 mmHg 74%
    07:00 +10°C° 0 mm 3 mps 742 mmHg 73%
    08:00 +11°C° 0 mm 3 mps 742 mmHg 67%
    09:00 +13°C° 0 mm 4 mps 742 mmHg 60%
    10:00 +15°C° 0 mm 4 mps 742 mmHg 54%
    11:00 +15°C° 0 mm 5 mps 742 mmHg 54%
    12:00 +15°C° 0 mm 5 mps 741 mmHg 54%
    13:00 +16°C° 0 mm 5 mps 741 mmHg 54%
    14:00 +15°C° 0 mm 4 mps 740 mmHg 58%
    15:00 +14°C° 0 mm 4 mps 739 mmHg 62%
    16:00 +14°C° 0 mm 3 mps 739 mmHg 65%
    17:00 +14°C° 0.1 mm 4 mps 738 mmHg 69%
    18:00 +13°C° 0.1 mm 4 mps 738 mmHg 73%
    19:00 +13°C° 0.1 mm 4 mps 737 mmHg 77%
    20:00 +14°C° 0 mm 5 mps 736 mmHg 77%
    21:00 +14°C° 0 mm 6 mps 735 mmHg 78%
    22:00 +14°C° 0 mm 6 mps 734 mmHg 78%
    23:00 +15°C° 0.9 mm 7 mps 732 mmHg 77%

    24 September, Monday

    Time Temperature Precipitation Wind Pressure Humidity
    00:00 +15°C° 0.9 mm 7 mps 731 mmHg 77%
    01:00 +15°C° 0.9 mm 8 mps 729 mmHg 76%
    02:00 +16°C° 0.9 mm 9 mps 728 mmHg 76%
    03:00 +16°C° 0.9 mm 9 mps 727 mmHg 76%
    04:00 +17°C° 0.9 mm 10 mps 726 mmHg 76%
    05:00 +16°C° 1.7 mm 10 mps 725 mmHg 76%
    06:00 +16°C° 1.7 mm 10 mps 724 mmHg 75%
    07:00 +16°C° 1.7 mm 9 mps 724 mmHg 75%
    08:00 +14°C° 0.3 mm 11 mps 725 mmHg 73%
    09:00 +12°C° 0.3 mm 13 mps 726 mmHg 71%
    10:00 +10°C° 0.3 mm 15 mps 727 mmHg 69%
    11:00 +10°C° 0.2 mm 15 mps 729 mmHg 69%
    12:00 +9°C° 0.2 mm 15 mps 732 mmHg 69%
    13:00 +8°C° 0.2 mm 15 mps 734 mmHg 68%
    14:00 +9°C° 0 mm 14 mps 735 mmHg 65%
    15:00 +9°C° 0 mm 13 mps 737 mmHg 62%
    16:00 +10°C° 0 mm 12 mps 738 mmHg 59%
    17:00 +9°C° 0.1 mm 10 mps 739 mmHg 62%
    18:00 +9°C° 0.1 mm 8 mps 740 mmHg 66%
    19:00 +8°C° 0.1 mm 7 mps 741 mmHg 70%
    20:00 +7°C° 0 mm 6 mps 742 mmHg 71%
    21:00 +7°C° 0 mm 6 mps 743 mmHg 72%
    22:00 +6°C° 0 mm 5 mps 744 mmHg 73%
    23:00 +6°C° 0 mm 5 mps 745 mmHg 72%

    25 September, Tuesday

    Time Temperature Precipitation Wind Pressure Humidity
    00:00 +5°C° 0 mm 6 mps 746 mmHg 71%
    01:00 +5°C° 0 mm 6 mps 746 mmHg 70%
    02:00 +4°C° 0 mm 6 mps 747 mmHg 70%
    03:00 +4°C° 0 mm 6 mps 748 mmHg 70%
    04:00 +4°C° 0 mm 6 mps 748 mmHg 70%
    05:00 +5°C° 0 mm 5 mps 749 mmHg 70%
    06:00 +5°C° 0 mm 5 mps 749 mmHg 71%
    07:00 +5°C° 0 mm 5 mps 750 mmHg 71%
    08:00 +7°C° 0 mm 6 mps 750 mmHg 64%
    09:00 +8°C° 0 mm 6 mps 750 mmHg 57%
    10:00 +10°C° 0 mm 7 mps 751 mmHg 50%
    11:00 +10°C° 0 mm 7 mps 750 mmHg 48%
    12:00 +11°C° 0 mm 7 mps 750 mmHg 46%
    13:00 +11°C° 0 mm 7 mps 750 mmHg 44%
    14:00 +11°C° 0 mm 6 mps 749 mmHg 46%
    15:00 +11°C° 0 mm 6 mps 749 mmHg 47%
    16:00 +11°C° 0 mm 6 mps 748 mmHg 49%
    17:00 +10°C° 0 mm 6 mps 748 mmHg 52%
    18:00 +9°C° 0 mm 5 mps 748 mmHg 56%
    19:00 +8°C° 0 mm 5 mps 748 mmHg 60%
    20:00 +8°C° 0 mm 5 mps 747 mmHg 63%
    21:00 +8°C° 0 mm 6 mps 747 mmHg 67%
    22:00 +8°C° 0 mm 7 mps 747 mmHg 70%
    23:00 +8°C° 0.3 mm 7 mps 747 mmHg 73%

    26 September, Wednesday

    Time Temperature Precipitation Wind Pressure Humidity
    00:00 +8°C° 0.3 mm 7 mps 746 mmHg 76%
    01:00 +8°C° 0.3 mm 7 mps 746 mmHg 79%
    02:00 +7°C° 0.5 mm 6 mps 746 mmHg 83%
    03:00 +7°C° 0.5 mm 5 mps 747 mmHg 86%
    04:00 +7°C° 0.5 mm 5 mps 747 mmHg 89%
    05:00 +7°C° 0 mm 4 mps 747 mmHg 89%
    06:00 +7°C° 0 mm 4 mps 748 mmHg 88%
    07:00 +7°C° 0 mm 4 mps 748 mmHg 87%
    08:00 +8°C° 0 mm 4 mps 749 mmHg 78%
    09:00 +11°C° 0 mm 4 mps 749 mmHg 68%
    10:00 +12°C° 0 mm 4 mps 750 mmHg 58%
    11:00 +13°C° 0 mm 4 mps 750 mmHg 55%
    12:00 +14°C° 0 mm 4 mps 750 mmHg 52%
    13:00 +14°C° 0 mm 4 mps 750 mmHg 48%
    14:00 +14°C° 0 mm 4 mps 749 mmHg 52%
    15:00 +14°C° 0 mm 4 mps 749 mmHg 55%
    16:00 +13°C° 0 mm 3 mps 749 mmHg 58%
    17:00 +12°C° 0 mm 3 mps 749 mmHg 67%
    18:00 +10°C° 0 mm 2 mps 749 mmHg 76%
    19:00 +9°C° 0 mm 2 mps 749 mmHg 85%
    20:00 +9°C° 0 mm 2 mps 750 mmHg 86%
    21:00 +8°C° 0 mm 2 mps 750 mmHg 87%
    22:00 +8°C° 0 mm 2 mps 750 mmHg 88%
    23:00 +8°C° 0 mm 2 mps 750 mmHg 88%
    Show more